This is the latest recevied weather packets stored in our database for station/object W7JFO-3. If no packets are shown the sender has not sent any weather packets the latest 10 day(s).
| Time | Temp. | Humidity | Pressure | Rain* | Wind** | Luminosity | Snow |
|---|---|---|---|---|---|---|---|
| 1777374121 | 2.22° C | 85% | 1014.9 hPa | 0 mm | - | 0 W/m² | - |
| 1777373221 | 1.67° C | 87% | 1014.8 hPa | 0 mm | - | 0 W/m² | - |
| 1777372321 | 2.22° C | 84% | 1014.8 hPa | 0 mm | - | 0 W/m² | - |
| 1777371421 | 2.22° C | 82% | 1014.9 hPa | 0 mm | - | 0 W/m² | - |
| 1777370521 | 2.22° C | 83% | 1014.7 hPa | 0 mm | - | 0 W/m² | - |
| 1777369621 | 2.78° C | 79% | 1015 hPa | 0 mm | - | 0 W/m² | - |
| 1777368721 | 2.78° C | 80% | 1015.3 hPa | 0 mm | - | 0 W/m² | - |
| 1777367821 | 2.78° C | 79% | 1015.1 hPa | 0 mm | - | 0 W/m² | - |
| 1777366921 | 2.78° C | 80% | 1014.9 hPa | 0 mm | - | 0 W/m² | - |
| 1777366021 | 2.78° C | 78% | 1014.6 hPa | 0 mm | - | 0 W/m² | - |
| 1777365121 | 3.33° C | 75% | 1014.8 hPa | 0 mm | - | 0 W/m² | - |
| 1777364221 | 3.33° C | 76% | 1014.8 hPa | 0 mm | - | 0 W/m² | - |
| 1777363321 | 3.33° C | 75% | 1014.8 hPa | 0 mm | - | 0 W/m² | - |
| 1777362421 | 3.33° C | 75% | 1014.8 hPa | 0 mm | - | 0 W/m² | - |
| 1777361521 | 3.33° C | 74% | 1014.6 hPa | 0 mm | - | 0 W/m² | - |
| 1777360621 | 3.33° C | 74% | 1015 hPa | 0 mm | - | 0 W/m² | - |
| 1777359721 | 3.33° C | 73% | 1015.1 hPa | 0 mm | - | 0 W/m² | - |
| 1777358821 | 3.33° C | 74% | 1014.8 hPa | 0 mm | - | 0 W/m² | - |
| 1777357921 | 3.33° C | 73% | 1014.7 hPa | 0 mm | - | 0 W/m² | - |
| 1777357021 | 2.78° C | 75% | 1014.6 hPa | 0 mm | - | 0 W/m² | - |
| 1777356121 | 3.33° C | 74% | 1014.6 hPa | 0 mm | - | 0 W/m² | - |
| 1777355221 | 3.33° C | 74% | 1014.7 hPa | 0 mm | - | 0 W/m² | - |
| 1777354321 | 3.33° C | 74% | 1014.6 hPa | 0 mm | - | 0 W/m² | - |
| 1777353421 | 3.89° C | 72% | 1014.6 hPa | 0 mm | - | 0 W/m² | - |
| 1777352521 | 3.89° C | 73% | 1014.6 hPa | 0 mm | - | 0 W/m² | - |
* Rain latest hour (hover to see other rain measurements)
** Current wind speed in m/s (hover to see current wind gust speed)